Latest Coastal Weather Observations for Holmes Reef

IDQ60701

Issued at 3:21 am EST Sunday 1 March 2015 (issued every 10 minutes, with the page automatically refreshed every 10 minutes)

About coastal observations | Map of coastal stations | Coastal observations for QLD | Marine services | Other Formats
Station Details ID: 200732 Name: HOLMES REEF Lat: -16.47 Lon: 147.87 Height: 1.9 m
Data from the previous 72 hours. | See also: Recent months at Holmes Reef
Date/Time
EST
Temp

°C
Wind Pressure Rain
since 9am
mm
Weather Cloud Vis
km
Sea
Height
m
Swell
Dir
 
Speed
knots
Gust
knots
hPa Trend Height
m
Period
s
Dir
01/03:15am 27.8 E 6 - 1006.5 - - - - - - - - -
01/02:15am 28.1 E 7 - 1006.8 - - - - - - - - -
01/01:15am 28.1 E 8 - 1007.4 - - - - - - - - -
01/12:15am 28.3 E 8 - 1008.4 - - - - - - - - -
 
Date/Time
EST
Temp

°C
Wind Pressure Rain
since 9am
mm
Weather Cloud Vis
km
Sea
Height
m
Swell
Dir
 
Speed
knots
Gust
knots
hPa Trend Height
m
Period
s
Dir
28/11:15pm 28.3 E 8 - 1008.9 - - - - - - - - -
28/10:15pm 28.4 E 9 - 1008.8 - - - - - - - - -
28/09:15pm 28.6 E 8 - 1008.3 - - - - - - - - -
28/08:15pm 28.5 E 1 - 1007.5 - - - - - - - - -
28/07:15pm 28.7 E 8 - 1007.3 - - - - - - - - -
28/06:15pm 28.7 ESE 7 - 1006.9 - - - - - - - - -
28/05:15pm 29.1 CALM 0 - 1006.7 - - - - - - - - -
28/04:15pm 29.0 SE 5 - 1006.2 - - - - - - - - -
28/03:15pm 29.5 CALM 0 - 1006.3 - - - - - - - - -
28/02:15pm 29.3 CALM 0 - 1006.5 - - - - - - - - -
28/01:15pm 29.2 CALM 0 - 1007.1 - - - - - - - - -
28/12:15pm 29.2 CALM 0 - 1007.8 - - - - - - - - -
28/11:15am 29.1 CALM 0 - 1008.3 - - - - - - - - -
28/10:15am 29.4 CALM 0 - 1008.4 - - - - - - - - -
28/09:15am 29.1 S 1 - 1008.1 - - - - - - - - -
28/08:15am 30.0 CALM 0 - 1007.5 - - - - - - - - -
28/07:30am 28.2 WSW 3 5 1007.5 - - - - - - - - -
28/07:15am 28.3 SW 3 - 1007.0 - - - - - - - - -
28/07:00am 28.1 SW 3 4 1007.1 - - - - - - - - -
28/06:30am 28.1 SE 1 4 1006.9 - - - - - - - - -
28/06:15am 27.5 CALM 0 - 1006.6 - - - - - - - - -
28/06:00am 27.5 CALM 0 1 1006.8 - - - - - - - - -
28/05:30am 27.6 CALM 0 0 1006.6 - - - - - - - - -
28/05:15am 27.6 CALM 0 - 1006.1 - - - - - - - - -
28/05:00am 27.6 CALM 0 0 1006.2 - - - - - - - - -
28/04:30am 27.7 CALM 0 1 1006.2 - - - - - - - - -
28/04:15am 27.6 CALM 0 - 1005.8 - - - - - - - - -
28/04:00am 27.8 CALM 0 1 1006.0 - - - - - - - - -
28/03:30am 27.8 CALM 0 1 1006.2 - - - - - - - - -
28/03:15am 27.9 NE 1 - 1005.9 - - - - - - - - -
28/03:00am 27.9 CALM 0 1 1006.3 - - - - - - - - -
28/02:30am 27.9 E 1 4 1006.6 - - - - - - - - -
28/02:15am 27.9 CALM 0 - 1006.3 - - - - - - - - -
28/02:00am 28.1 CALM 0 2 1006.8 - - - - - - - - -
28/01:30am 28.1 ENE 1 5 1007.1 - - - - - - - - -
28/01:15am 28.1 ENE 1 - 1007.0 - - - - - - - - -
28/01:00am 28.2 CALM 0 2 1007.5 - - - - - - - - -
28/12:30am 28.2 CALM 0 0 1008.2 - - - - - - - - -
28/12:15am 28.3 CALM 0 - 1008.0 - - - - - - - - -
28/12:00am 28.3 E 3 5 1008.4 - - - - - - - - -
 
Date/Time
EST
Temp

°C
Wind Pressure Rain
since 9am
mm
Weather Cloud Vis
km
Sea
Height
m
Swell
Dir
 
Speed
knots
Gust
knots
hPa Trend Height
m
Period
s
Dir
27/11:30pm 28.5 ESE 5 6 1008.4 - - - - - - - - -
27/11:15pm 28.5 ESE 5 - 1008.0 - - - - - - - - -
27/11:00pm 28.6 CALM 0 3 1008.5 - - - - - - - - -
27/10:30pm 28.6 CALM 0 2 1008.6 - - - - - - - - -
27/10:15pm 28.5 CALM 0 - 1008.2 - - - - - - - - -
27/10:00pm 28.5 CALM 0 2 1008.3 - - - - - - - - -
27/09:30pm 28.5 CALM 0 2 1008.3 - - - - - - - - -
27/09:15pm 28.6 CALM 0 - 1007.8 - - - - - - - - -
27/09:00pm 28.7 CALM 0 2 1008.2 - - - - - - - - -
27/08:30pm 28.6 CALM 0 2 1007.6 - - - - - - - - -
27/08:15pm 28.6 CALM 0 - 1007.0 - - - - - - - - -
27/08:00pm 28.6 CALM 0 2 1007.3 - - - - - - - - -
27/07:30pm 28.6 CALM 0 3 1007.2 - - - - - - - - -
27/07:15pm 28.6 CALM 0 - 1006.7 - - - - - - - - -
27/07:00pm 28.6 CALM 0 2 1006.8 - - - - - - - - -
27/06:30pm 28.7 CALM 0 3 1006.4 - - - - - - - - -
27/06:15pm 29.0 CALM 0 - 1005.7 - - - - - - - - -
27/06:00pm 29.3 CALM 0 3 1005.9 - - - - - - - - -
27/05:30pm 30.4 CALM 0 1 1005.7 - - - - - - - - -
27/05:15pm 29.4 S 1 - 1005.2 - - - - - - - - -
27/05:00pm 30.7 CALM 0 4 1005.6 - - - - - - - - -
27/04:30pm 30.9 S 4 5 1005.7 - - - - - - - - -
27/04:15pm 30.6 S 4 - 1005.5 - - - - - - - - -
27/04:00pm 30.8 SSW 4 6 1005.9 - - - - - - - - -
27/03:30pm 30.6 SSW 4 5 1006.0 - - - - - - - - -
27/03:15pm 30.5 SSW 3 - 1005.7 - - - - - - - - -
27/03:00pm 30.2 CALM 0 3 1006.1 - - - - - - - - -
27/02:30pm 30.4 CALM 0 2 1006.1 - - - - - - - - -
27/02:15pm 30.3 CALM 0 - 1005.9 - - - - - - - - -
27/02:00pm 30.1 CALM 0 1 1006.3 - - - - - - - - -
27/01:30pm 30.0 CALM 0 3 1006.6 - - - - - - - - -
27/01:15pm 30.0 CALM 0 - 1006.4 - - - - - - - - -
27/01:00pm 30.4 CALM 0 1 1007.0 - - - - - - - - -
27/12:30pm 30.1 CALM 0 1 1007.4 - - - - - - - - -
27/12:15pm 30.3 CALM 0 - 1007.2 - - - - - - - - -
27/12:00pm 29.7 CALM 0 2 1007.5 - - - - - - - - -
27/11:30am 29.8 CALM 0 3 1007.5 - - - - - - - - -
27/11:15am 30.7 CALM 0 - 1007.3 - - - - - - - - -
27/11:00am 30.4 CALM 0 0 1007.7 - - - - - - - - -
27/10:30am 29.3 CALM 0 3 1007.8 - - - - - - - - -
27/10:15am 29.1 CALM 0 - 1007.6 - - - - - - - - -
27/10:00am 29.3 CALM 0 1 1008.0 - - - - - - - - -
27/09:30am 28.9 CALM 0 5 1008.0 - - - - - - - - -
27/09:15am 29.2 CALM 0 - 1007.6 - - - - - - - - -
27/09:00am 29.2 CALM 0 2 1007.8 - - - - - - - - -
27/08:30am 28.9 ESE 6 7 1007.6 - - - - - - - - -
27/08:15am 29.0 ESE 5 - 1007.2 - - - - - - - - -
27/08:00am 28.8 ESE 6 8 1007.4 - - - - - - - - -
27/07:30am 29.3 ESE 3 7 1007.4 - - - - - - - - -
27/07:15am 29.4 CALM 0 - 1006.9 - - - - - - - - -
27/07:00am 29.0 E 3 7 1007.1 - - - - - - - - -
27/06:30am 28.1 E 6 7 1006.8 - - - - - - - - -
27/06:15am 27.9 E 6 - 1006.3 - - - - - - - - -
27/06:00am 28.0 E 6 8 1006.5 - - - - - - - - -
27/05:30am 27.9 E 7 8 1006.2 - - - - - - - - -
27/05:15am 27.9 E 7 - 1005.6 - - - - - - - - -
27/05:00am 28.0 E 6 8 1005.8 - - - - - - - - -
27/04:30am 27.9 E 9 10 1005.5 - - - - - - - - -
27/04:15am 28.1 ESE 7 - 1005.3 - - - - - - - - -
27/04:00am 28.0 E 8 11 1005.6 - - - - - - - - -
27/03:30am 28.0 E 8 9 1005.7 - - - - - - - - -
27/03:15am 28.0 E 9 - 1005.5 - - - - - - - - -
27/03:00am 28.2 E 9 11 1005.8 - - - - - - - - -
27/02:30am 28.2 E 9 11 1006.0 - - - - - - - - -
27/02:15am 28.2 E 9 - 1005.7 - - - - - - - - -
27/02:00am 28.2 E 10 12 1006.1 - - - - - - - - -
27/01:30am 28.2 E 10 11 1006.5 - - - - - - - - -
27/01:15am 28.2 E 10 - 1006.3 - - - - - - - - -
27/01:00am 28.3 E 10 13 1006.7 - - - - - - - - -
27/12:30am 28.3 E 10 11 1007.3 - - - - - - - - -
27/12:15am 28.3 E 10 - 1007.2 - - - - - - - - -
27/12:00am 28.4 ESE 10 11 1007.7 - - - - - - - - -
 
Date/Time
EST
Temp

°C
Wind Pressure Rain
since 9am
mm
Weather Cloud Vis
km
Sea
Height
m
Swell
Dir
 
Speed
knots
Gust
knots
hPa Trend Height
m
Period
s
Dir
26/11:30pm 28.4 ESE 10 12 1007.9 - - - - - - - - -
26/11:15pm 28.5 ESE 11 - 1007.6 - - - - - - - - -
26/11:00pm 28.6 ESE 12 14 1008.1 - - - - - - - - -
26/10:30pm 28.5 ESE 12 14 1007.9 - - - - - - - - -
26/10:15pm 28.6 ESE 12 - 1007.5 - - - - - - - - -
26/10:00pm 28.5 ESE 11 12 1007.7 - - - - - - - - -
26/09:30pm 28.5 ESE 12 15 1007.3 - - - - - - - - -
26/09:15pm 28.6 SE 13 - 1006.9 - - - - - - - - -
26/09:00pm 28.5 SE 13 16 1007.1 - - - - - - - - -
26/08:30pm 28.6 SE 13 16 1006.8 - - - - - - - - -
26/08:15pm 28.6 SE 13 - 1006.4 - - - - - - - - -
26/08:00pm 28.7 SE 14 16 1006.5 - - - - - - - - -
26/07:30pm 28.6 SE 13 15 1006.3 - - - - - - - - -
26/07:15pm 28.6 SSE 14 - 1005.8 - - - - - - - - -
26/07:00pm 28.6 SE 14 15 1005.9 - - - - - - - - -
26/06:30pm 28.8 SE 13 15 1005.6 - - - - - - - - -
26/06:15pm 28.8 SSE 14 - 1005.0 - - - - - - - - -
26/06:00pm 29.0 SSE 15 17 1005.1 - - - - - - - - -
26/05:30pm 29.1 SSE 14 16 1005.2 - - - - - - - - -
26/05:15pm 28.5 SSE 14 - 1004.8 - - - - - - - - -
26/05:00pm 28.8 SSE 14 20 1005.0 - - - - - - - - -
26/04:30pm 29.3 SSE 11 13 1005.0 - - - - - - - - -
26/04:15pm 29.4 SSE 11 - 1004.6 - - - - - - - - -
26/04:00pm 28.9 SSE 2 6 1004.9 - - - - - - - - -
26/03:30pm 27.4 S 17 20 1005.0 - - - - - - - - -
26/03:23pm 28.4 SSE 18 20 1004.9 - - - - - - - - -
26/03:15pm 28.8 SE 11 - 1004.5 - - - - - - - - -
26/03:00pm 28.7 ESE 7 9 1005.0 - - - - - - - - -
26/02:30pm 28.4 SE 14 15 1005.1 - - - - - - - - -
26/02:15pm 29.6 SSE 8 - 1004.9 - - - - - - - - -
26/02:00pm 29.6 SSE 7 8 1005.4 - - - - - - - - -
26/01:30pm 29.4 SSE 10 13 1005.8 - - - - - - - - -
26/01:15pm 29.5 S 9 - 1005.7 - - - - - - - - -
26/01:00pm 29.7 SSE 7 9 1006.2 - - - - - - - - -
26/12:30pm 29.4 SSE 7 8 1006.6 - - - - - - - - -
26/12:15pm 28.7 SE 9 - 1006.5 - - - - - - - - -
26/12:00pm 29.5 SE 7 8 1007.1 - - - - - - - - -
26/11:30am 29.7 SE 6 7 1007.5 - - - - - - - - -
26/11:15am 29.3 SE 7 - 1007.4 - - - - - - - - -
26/11:00am 29.4 SE 7 9 1007.7 - - - - - - - - -
26/10:30am 29.2 SE 8 9 1007.8 - - - - - - - - -
26/10:15am 29.2 SE 8 - 1007.5 - - - - - - - - -
26/10:00am 29.2 SE 8 10 1007.9 - - - - - - - - -
26/09:30am 28.8 CALM 0 2 1008.1 - - - - - - - - -
26/09:15am 28.7 CALM 0 - 1007.8 - - - - - - - - -
26/09:00am 29.1 CALM 0 0 1008.1 - - - - - - - - -
26/08:30am 28.8 SSE 4 5 1008.2 - - - - - - - - -
26/08:15am 28.5 S 6 - 1007.9 - - - - - - - - -
26/08:00am 28.0 SSW 8 10 1008.2 - - - - - - - - -
26/07:30am 28.3 S 7 8 1007.9 - - - - - - - - -
26/07:15am 28.7 S 7 - 1007.4 - - - - - - - - -
26/07:00am 29.0 SSE 7 9 1007.4 - - - - - - - - -
26/06:30am 28.1 S 8 9 1007.4 - - - - - - - - -
26/06:15am 28.1 S 8 - 1006.8 - - - - - - - - -
26/06:00am 28.1 S 9 11 1007.0 - - - - - - - - -
26/05:30am 28.2 SSE 9 11 1006.7 - - - - - - - - -
26/05:15am 28.2 SSE 9 - 1006.0 - - - - - - - - -
26/05:00am 28.1 SSE 9 10 1006.4 - - - - - - - - -
26/04:30am 28.2 SSE 8 10 1006.4 - - - - - - - - -
26/04:15am 28.3 SSE 9 - 1006.1 - - - - - - - - -
26/04:00am 28.2 SSE 9 12 1006.5 - - - - - - - - -
26/03:30am 28.3 SSE 8 10 1006.5 - - - - - - - - -

Other Formats:

Comma delimited format used in spreadsheet applications
http://www.bom.gov.au/fwo/IDQ60701/IDQ60701.94289.axf

JavaScript Object Notation format (JSON) in row-major order
http://www.bom.gov.au/fwo/IDQ60701/IDQ60701.94289.json